Regional Weather Roundup
Issued by NWS Boston, MA

Current Version | Previous Version | Text Only | Print | Product List | Glossary On
Versions: 1 2 3 4 5 6 7 8 9 10 11 12 13 14 15 16 17 18 19 20 21 22 23 24 25 26 27 28 29 30 31 32 33 34 35 36 37 38 39 40 41 42 43 44 45 46 47 48 49 50
000
ASUS41 KBOX 250910
RWRBOX

REGIONAL WEATHER ROUNDUP
NATIONAL WEATHER SERVICE TAUNTON MA
400 AM EST SAT FEB 25 2017

NOTE:  "FAIR" INDICATES FEW OR NO CLOUDS BELOW 12,000 FEET WITH NO
SIGNIFICANT WEATHER AND/OR OBSTRUCTIONS TO VISIBILITY.

MAZALL-251000-
EASTERN MASSACHUSETTS

CITY           SKY/WX    TMP DP  RH WIND       PRES   REMARKS
BOSTON         CLOUDY    53  53 100 S8        29.86S
BEVERLY        CLOUDY    55  55 100 S7        29.85S
LAWRENCE       CLOUDY    58  56  93 S7        29.86S
BEDFORD        CLOUDY    57  53  86 S7        29.84S
BLUE HILL        N/A     53  53 100 S15G21    29.85S
NORWOOD        CLOUDY    55  54  96 S6        29.86S
MARSHFIELD     MOCLDY    54  54 100 S3        29.87S
PLYMOUTH       CLOUDY    53  52  96 VRB3      29.89S
TAUNTON        CLOUDY    55  52  89 S6        29.87F
NEW BEDFORD    MOCLDY    53  51  93 SW5       29.87F
$$

MAZALL-251000-
CAPE COD AND THE ISLANDS

CITY           SKY/WX    TMP DP  RH WIND       PRES   REMARKS
FALMOUTH       MOCLDY    50  50 100 MISG      29.90S
HYANNIS        CLOUDY    47  47 100 S5        29.89S FOG
CHATHAM        CLOUDY    48  48 100 SW5       29.92F
PROVINCETOWN   CLOUDY    50  50 100 S9        29.90S
NANTUCKET      CLEAR     46  44  93 SE8       29.91F
MARTHAS VNYRD  FOG       50  50 100 S7        29.89F VSB 3/4
$$

MAZALL-251000-
CENTRAL AND WESTERN MASSACHUSETTS

CITY           SKY/WX    TMP DP  RH WIND       PRES   REMARKS
WORCESTER      CLOUDY    56  53  90 S13       29.84S
FITCHBURG      NOT AVBL
ORANGE         CLOUDY    55  55 100 S9        29.80F
SPRINGFIELD    CLOUDY    57  55  93 S9        29.80F
WESTFIELD      CLOUDY    55  55 100 S9        29.80F
NORTH ADAMS    CLOUDY    51  47  86 E9G18     29.76F
PITTSFIELD     CLOUDY    58  53  84 S14       29.75F
$$

RIZALL-251000-
RHODE ISLAND

CITY           SKY/WX    TMP DP  RH WIND       PRES   REMARKS
PROVIDENCE     CLOUDY    50  49  96 SE5       29.87S
NEWPORT        FOG       49  49 100 S6        29.87F VSB 1/4
BLOCK ISLAND   MOCLDY    52  52 100 S14       29.87F FOG
SMITHFIELD     CLOUDY    56  55  97 S5        29.86F
WESTERLY       FOG       49  47  93 CALM      29.87S VSB 1/4
$$

CTZALL-251000-
CONNECTICUT

CITY           SKY/WX    TMP DP  RH WIND       PRES   REMARKS
BRADLEY INTL   CLOUDY    56  55  97 S10       29.82F
HARTFORD       CLOUDY    56  55  97 S6        29.83F
BRIDGEPORT     FOG       49  47  93 E6        29.83F VSB 1/4
DANBURY        CLOUDY    58  55  90 S9        29.81F
GROTON         FOG       48  48 100 CALM      29.86S VSB<1/4
NEW HAVEN      FOG       51  50  96 CALM      29.84F VSB 1/4
CHESTER        FOG       54  54 100 CALM      29.85S VSB<1/4
MERIDEN        FOG       54  53  97 S6        29.84S VSB 1/4
WILLIMANTIC    CLOUDY    58  57  97 S6        29.85F
OXFORD         CLOUDY    55  52  88 S7        29.83F VSB 3/4
$$

MEZ002-015-021-024-NHZ003-005-008-011-012-014-VTZ005-008-251000-
NORTHERN NEW ENGLAND

CITY           SKY/WX    TMP DP  RH WIND       PRES   REMARKS
PORTLAND ME    FOG       35  35 100 CALM      29.85R VSB 1/4
BANGOR ME      FOG       38  38 100 N6        29.88R VSB 1/4
CONCORD NH     CLOUDY    48  46  93 SE5       29.81F
MANCHESTER NH  LGT RAIN  55  52  89 SE7       29.81S
NASHUA NH      CLOUDY    52  52 100 SE3       29.83S
PORTSMOUTH NH  CLOUDY    49  48  97 SE6       29.82S
JAFFREY NH     CLOUDY    55  53  93 S9G17     29.81F
KEENE NH       CLOUDY    46  45  96 CALM      29.79F
BURLINGTON VT  CLOUDY    35  34  96 CALM      29.68S FOG
MT. WASHINGTON FOG       37  37 100 SW47G59     N/A  VSB 0   WCI  22
$$

NYZ052-076-251000-
EASTERN NEW YORK

CITY           SKY/WX    TMP DP  RH WIND       PRES   REMARKS
ALBANY         CLOUDY    60  54  80 S10       29.71F
NEW YORK CITY  CLOUDY    53  50  89 SE5       29.80F
$$

ANZALL-251000-
MARINE OBSERVATIONS

STATION/POSITION TIME  TEMP    WIND        PRES    VSBY  WAVE
                       AIR SEA DIR/SP/G                  HT/PER
                 (UTC) (F)     (DEG/KT/KT) (MB)    (MI)  (FT/S)
BOSTON BUOY      0750   45 43  140/  8/ 10 1010.8          2/ 9
BUZZARDS BAY     0800   50     190/ 19/ 19 1012.0F
NANTUCKET SOUND  0750   45 40  190/ 10/ 10 1012.8          1/11
MASS BAY-STELLWA 0804   46 41  180/  8/ 14 1010.4F
ISLE OF SHOALS   0900   48     170/ 19/ 21 1010.4S
S OF BLOCK IS    0855      42                N/A           3/11
$$

......................KEY.........................
  SKY/WX - SKY CONDITION/PRESENT WEATHER
  TMP    - TEMPERATURE IN FAHRENHEIT
  DWPT   - DEWPOINT IN FAHRENHEIT
  RH     - RELATIVE HUMIDITY IN PERCENT
  WIND   - DIRECTION AND SPEED IN MPH
  PRES   - MEAN SEA LEVEL PRESSURE IN INCHES OF HG
  WCI    - WIND CHILL INDEX
  VSB    - VISIBILITY IN MILES
  HX     - HEAT INDEX
  TC     - TEMPERATURE IN CELSIUS
  VRB    - VARIABLE WIND DIRECTION
  N/A    - NOT AVAILABLE



USA.gov is the U.S. government's official web portal to all federal, state and local government web resources and services.